Location: Friaudour
(46.0460°N, 1.2873°E)
Time: 00:31:13
(UTC+00:00)

Meteor 2-4 Rocket - Pass Details

Date: 14 July 2020
Orbit: 800 x 908 km, 81.2° (Epoch: 03 August)

Event Time Altitude Azimuth Distance (km) Brightness Sun altitude
Rises 01:56:36 0° 346° (NNW) 3,548 7.7 -17.4°
Reaches altitude 10° 01:59:06 10° 343° (NNW) 2,602 6.9 -17.2°
Maximum altitude 02:04:57 62° 264° (W) 1,012 3.9 -16.7°
Enters shadow 02:08:33 24° 191° (S) 1,782 4.8 -16.4°
